EW6774 Weather Reports


Display with metric or nautical units.
time (UTC)temp
F
wind
direction
speed
MPH
gust
MPH
rain 1hr
in
rain 24hr
in
rain mn
in
humidity
%
barometer
mb
20260504230903 83 193 1.0 2.0 0.00 0.00 0.00 35 1008.6
20260504230403 83 294 1.0 3.0 0.00 0.00 0.00 34 1008.6
20260504225904 83 310 1.0 1.0 0.00 0.00 0.00 36 1008.6
20260504225403 83 239 0.0 3.0 0.00 0.00 0.00 38 1008.6
20260504224903 83 103 1.0 2.0 0.00 0.00 0.00 35 1008.7
20260504224403 83 288 0.0 1.0 0.00 0.00 0.00 36 1008.7
20260504223403 82 279 1.0 3.0 0.00 0.00 0.00 37 1008.7
20260504222903 82 84 1.0 3.0 0.00 0.00 0.00 37 1008.8
20260504222403 82 94 0.0 3.0 0.00 0.00 0.00 39 1008.8
20260504221403 82 252 1.0 3.0 0.00 0.00 0.00 36 1008.9
20260504220903 83 160 1.0 2.0 0.00 0.00 0.00 36 1009.0
20260504220403 83 245 1.0 3.0 0.00 0.00 0.00 37 1009.0
20260504215903 82 200 0.0 1.0 0.00 0.00 0.00 34 1009.2
20260504215403 82 179 1.0 5.0 0.00 0.00 0.00 35 1009.2
20260504214403 82 318 0.0 0.0 0.00 0.00 0.00 37 1009.3
20260504213904 82 340 1.0 3.0 0.00 0.00 0.00 36 1009.3
20260504213403 82 301 0.0 1.0 0.00 0.00 0.00 38 1009.4
20260504212904 82 279 1.0 1.0 0.00 0.00 0.00 36 1009.4
20260504212403 81 266 1.0 2.0 0.00 0.00 0.00 38 1009.4
20260504211903 81 279 1.0 2.0 0.00 0.00 0.00 38 1009.5
20260504211403 81 276 1.0 2.0 0.00 0.00 0.00 39 1009.5
20260504210903 81 50 1.0 3.0 0.00 0.00 0.00 41 1009.5
20260504210404 81 282 1.0 3.0 0.00 0.00 0.00 41 1009.6
20260504205903 81 83 1.0 3.0 0.00 0.00 0.00 39 1009.7
20260504205403 81 258 0.0 0.0 0.00 0.00 0.00 37 1009.6
20260504204903 81 310 0.0 2.0 0.00 0.00 0.00 39 1009.7
20260504202403 79 285 1.0 2.0 0.00 0.00 0.00 42 1009.8
20260504201903 79 354 1.0 2.0 0.00 0.00 0.00 42 1009.7
20260504201403 79 10 1.0 2.0 0.00 0.00 0.00 42 1009.8
20260504200904 79 312 0.0 2.0 0.00 0.00 0.00 42 1009.9
20260504200404 79 313 1.0 3.0 0.00 0.00 0.00 43 1010.0
20260504195903 79 174 1.0 3.0 0.00 0.00 0.00 40 1010.0
20260504195403 78 299 1.0 3.0 0.00 0.00 0.00 43 1010.0
20260504194903 79 164 2.0 3.0 0.00 0.00 0.00 41 1009.9
20260504193403 80 236 1.0 2.0 0.00 0.00 0.00 44 1009.8
20260504192904 80 17 1.0 2.0 0.00 0.00 0.00 47 1009.8
20260504192403 80 274 0.0 0.0 0.00 0.00 0.00 46 1009.8
20260504191903 79 249 0.0 2.0 0.00 0.00 0.00 43 1009.8
20260504191403 80 122 0.0 0.0 0.00 0.00 0.00 45 1009.9
20260504190904 79 172 0.0 2.0 0.00 0.00 0.00 48 1009.9
20260504190403 79 236 1.0 3.0 0.00 0.00 0.00 46 1009.9
20260504185904 78 107 0.0 2.0 0.00 0.00 0.00 47 1009.9
20260504184903 77 117 1.0 3.0 0.00 0.00 0.00 46 1010.0
20260504184404 78 142 1.0 3.0 0.00 0.00 0.00 48 1010.0
20260504183903 77 177 0.0 3.0 0.00 0.00 0.00 52 1010.0
20260504183404 77 150 1.0 2.0 0.00 0.00 0.00 47 1010.0
20260504182403 76 115 1.0 2.0 0.00 0.00 0.00 47 1010.1
20260504181905 76 153 1.0 3.0 0.00 0.00 0.00 49 1010.1
20260504181404 76 163 1.0 3.0 0.00 0.00 0.00 48 1010.0
20260504180905 75 186 1.0 3.0 0.00 0.00 0.00 47 1010.1
20260504175904 75 201 1.0 2.0 0.00 0.00 0.00 51 1010.1
20260504175405 75 210 2.0 3.0 0.00 0.00 0.00 48 1010.0
20260504174903 75 197 2.0 5.0 0.00 0.00 0.00 52 1010.0
20260504174404 75 140 1.0 3.0 0.00 0.00 0.00 53 1010.0
20260504173403 74 151 0.0 2.0 0.00 0.00 0.00 52 1010.1
20260504172903 73 152 1.0 2.0 0.00 0.00 0.00 51 1010.1
20260504171903 72 155 1.0 3.0 0.00 0.00 0.00 53 1010.1
20260504171403 72 125 1.0 3.0 0.00 0.00 0.00 51 1010.1
20260504170903 72 234 0.0 1.0 0.00 0.00 0.00 53 1010.1
20260504170404 72 246 0.0 1.0 0.00 0.00 0.00 55 1010.1
20260504150904 51 136 0.0 0.0 0.00 0.00 0.00 3 1010.0
20260504150404 51 136 0.0 0.0 0.00 0.00 0.00 3 1010.0
20260504140903 47 136 0.0 0.0 0.00 0.00 0.00 3 1009.7
20260504130403 47 139 0.0 0.0 0.00 0.00 0.00 3 1009.2
20260504110403 48 139 0.0 0.0 0.00 0.00 0.00 3 1009.1
20260504081904 51 139 0.0 0.0 0.00 0.00 0.00 23 1009.0
20260504080903 51 139 0.0 0.0 0.00 0.00 0.00 24 1009.1
20260504080404 52 139 0.0 0.0 0.00 0.00 0.00 26 1009.0
20260504070403 53 139 0.0 0.0 0.00 0.00 0.00 47 1009.0
20260504050403 58 138 0.0 0.0 0.00 0.00 0.00 73 1009.0
20260504045403 59 139 0.0 0.0 0.00 0.00 0.00 73 1009.0
20260504044903 59 139 0.0 0.0 0.00 0.00 0.00 73 1008.9
20260504044403 59 138 0.0 0.0 0.00 0.00 0.00 73 1008.9
20260504043403 60 139 0.0 0.0 0.00 0.00 0.00 72 1008.9
20260504042903 61 139 0.0 0.0 0.00 0.00 0.00 72 1008.8
20260504042402 61 138 0.0 0.0 0.00 0.00 0.00 71 1008.8
20260504041903 61 139 0.0 0.0 0.00 0.00 0.00 71 1008.8
20260504041403 62 139 0.0 0.0 0.00 0.00 0.00 69 1008.8
20260504040403 63 139 0.0 0.0 0.00 0.00 0.00 68 1008.8
20260504035903 63 139 0.0 0.0 0.00 0.00 0.00 68 1008.7
20260504034904 64 139 0.0 0.0 0.00 0.00 0.00 67 1008.6
20260504034403 65 139 0.0 0.0 0.00 0.00 0.00 67 1008.5
20260504033903 66 139 0.0 0.0 0.00 0.00 0.00 64 1008.5
20260504033403 66 139 0.0 0.0 0.00 0.00 0.00 61 1008.4
20260504032903 67 138 0.0 0.0 0.00 0.00 0.00 61 1008.4
20260504031903 68 138 0.0 0.0 0.00 0.00 0.00 57 1008.5
20260504031403 68 138 0.0 0.0 0.00 0.00 0.00 55 1008.5
20260504030902 69 138 0.0 0.0 0.00 0.00 0.00 57 1008.4
20260504030403 69 138 0.0 0.0 0.00 0.00 0.00 60 1008.5
20260504025903 70 139 0.0 0.0 0.00 0.00 0.00 60 1008.5
20260504025404 70 139 0.0 0.0 0.00 0.00 0.00 59 1008.5
20260504024903 71 139 0.0 0.0 0.00 0.00 0.00 59 1008.5
20260504024403 71 139 0.0 0.0 0.00 0.00 0.00 59 1008.5
20260504023903 72 139 0.0 0.0 0.00 0.00 0.00 55 1008.4
20260504023403 72 139 0.0 0.0 0.00 0.00 0.00 57 1008.4
20260504022903 73 139 0.0 0.0 0.00 0.00 0.00 57 1008.4
20260504022403 73 139 0.0 0.0 0.00 0.00 0.00 58 1008.4
20260504021903 74 139 0.0 0.0 0.00 0.00 0.00 57 1008.5
20260504021403 75 139 0.0 0.0 0.00 0.00 0.00 53 1008.5
20260504020903 75 139 0.0 0.0 0.00 0.00 0.00 54 1008.5
20260504020402 76 139 0.0 0.0 0.00 0.00 0.00 50 1008.5
20260504015403 77 139 0.0 0.0 0.00 0.00 0.00 48 1008.5
20260504014903 78 138 0.0 0.0 0.00 0.00 0.00 48 1008.6
20260504014404 78 138 0.0 0.0 0.00 0.00 0.00 46 1008.5
20260504013903 79 138 0.0 0.0 0.00 0.00 0.00 45 1008.6
20260504013403 80 138 0.0 0.0 0.00 0.00 0.00 45 1008.6
20260504012903 81 138 0.0 0.0 0.00 0.00 0.00 43 1008.6
20260504012403 81 138 0.0 0.0 0.00 0.00 0.00 44 1008.6
20260504011904 82 135 0.0 0.0 0.00 0.00 0.00 43 1008.7
20260504011403 83 136 0.0 0.0 0.00 0.00 0.00 41 1008.7
20260504010903 85 135 0.0 0.0 0.00 0.00 0.00 40 1008.8
20260504005403 85 134 0.0 0.0 0.00 0.00 0.00 40 1008.9
20260504004904 84 105 0.0 0.0 0.00 0.00 0.00 41 1008.9
20260504004403 84 106 0.0 1.0 0.00 0.00 0.00 40 1009.0
20260504003903 83 96 0.0 2.0 0.00 0.00 0.00 42 1009.0
20260504003403 84 117 1.0 2.0 0.00 0.00 0.00 41 1009.0
20260504002402 84 234 0.0 2.0 0.00 0.00 0.00 42 1009.1
20260504001903 84 250 0.0 3.0 0.00 0.00 0.00 40 1009.1
20260504001404 84 243 0.0 3.0 0.00 0.00 0.00 41 1009.1
20260504000903 84 87 0.0 0.0 0.00 0.00 0.00 41 1009.2
20260504000403 83 87 0.0 1.0 0.00 0.00 0.00 41 1009.2
20260503235902 83 283 0.0 1.0 0.00 0.00 0.00 41 1009.2
20260503235404 83 220 0.0 3.0 0.00 0.00 0.00 44 1009.3
20260503234903 84 249 1.0 3.0 0.00 0.00 0.00 41 1009.2
20260503234404 84 100 0.0 0.0 0.00 0.00 0.00 40 1009.2
20260503233905 84 102 1.0 2.0 0.00 0.00 0.00 39 1009.3
20260503233403 84 160 0.0 2.0 0.00 0.00 0.00 42 1009.4
20260503232402 84 241 0.0 0.0 0.00 0.00 0.00 43 1009.5
20260503231903 84 277 0.0 1.0 0.00 0.00 0.00 43 1009.6